Change the Weather History Date:

Tuesday, November 13, 2012

  Actual Average (KHVN) Record (KHVN)
Temperature  
Mean Temperature 50 °F -  
Max Temperature 62 °F 49 °F 66 °F (2010)
Min Temperature 37 °F 35 °F 27 °F (1981)
Degree Days  
Heating Degree Days 14    
Moisture  
Dew Point 42 °F    
Average Humidity 77    
Maximum Humidity 90    
Minimum Humidity 60    
Precipitation  
Precipitation 0.02 in - - ()
Sea Level Pressure  
Sea Level Pressure 30.27 in    
Wind  
Wind Speed 7 mph (NNW)    
Max Wind Speed 13 mph    
Max Gust Speed 21 mph    
Visibility 10 miles    
Events Rain    
Averages and records for this station are not official NWS values.
T = Trace of Precipitation, MM = Missing Value Source: NWS Daily Summary

Daily Weather History Graph

Daily Weather History Graph

Search for Another Location

Airport or City:

Trip Planner

Search our weather history database for the weather conditions in past years. The results will help you decide how hot, cold, wet, or windy it might be!

Date:

Astronomy

Nov. 13, 2012 Rise Set
Actual Time 6:38 AM EST 4:32 PM EST
Civil Twilight 6:08 AM EST 5:02 PM EST
Nautical Twilight 5:35 AM EST 5:35 PM EST
Astronomical Twilight 5:02 AM EST 6:08 PM EST
Moon 6:12 AM EST (11/13) 4:23 PM EST (11/13)
Length of Visible Light 10h 53m
Length of Day
9h 54m
Waning Crescent, 0% of the Moon is Illuminated
Nov 13
Waning Crescent
Nov 13
New
Nov 20
First Quarter
Nov 28
Full
Dec 6
Last Quarter

Hourly Weather History & Observations

Time (EST) Temp. Windchill Dew Point Humidity Pressure Visibility Wind Dir Wind Speed Gust Speed Precip Events Conditions
12:53 AM 61.0 °F - 57.9 °F 90% 30.19 in 10.0 mi SSW 3.5 mph - 0.00 in   Overcast
1:33 AM 60.8 °F - 57.2 °F 88% 30.17 in 10.0 mi South 8.1 mph - N/A   Overcast
1:53 AM 61.0 °F - 57.9 °F 90% 30.17 in 10.0 mi SSW 5.8 mph - N/A   Overcast
2:53 AM 62.1 °F - 59.0 °F 90% 30.15 in 10.0 mi South 11.5 mph - N/A   Overcast
3:53 AM 61.0 °F - 57.9 °F 90% 30.13 in 10.0 mi South 5.8 mph - N/A   Overcast
4:41 AM 60.8 °F - 57.2 °F 88% 30.13 in 10.0 mi South 10.4 mph - N/A   Overcast
4:53 AM 61.0 °F - 57.0 °F 87% 30.13 in 10.0 mi South 10.4 mph 17.3 mph 0.00 in Rain Light Rain
5:53 AM 60.1 °F - 55.9 °F 86% 30.15 in 10.0 mi West 5.8 mph - 0.00 in Rain Light Rain
6:02 AM 60.8 °F - 55.4 °F 82% 30.16 in 10.0 mi WNW 9.2 mph - 0.00 in Rain Light Rain
6:36 AM 53.6 °F - 48.2 °F 82% 30.19 in 8.0 mi North 11.5 mph 20.7 mph 0.00 in Rain Light Rain
6:46 AM 51.8 °F - 46.4 °F 82% 30.20 in 10.0 mi North 5.8 mph - 0.00 in Rain Light Rain
6:53 AM 51.1 °F - 46.9 °F 86% 30.20 in 10.0 mi North 10.4 mph - 0.00 in   Overcast
7:33 AM 50.0 °F - 42.8 °F 76% 30.24 in 10.0 mi North 11.5 mph 17.3 mph 0.00 in Rain Light Rain
7:53 AM 48.9 °F - 42.1 °F 77% 30.25 in 10.0 mi North 5.8 mph - 0.00 in Rain Light Rain
8:53 AM 48.0 °F - 42.1 °F 80% 30.28 in 6.0 mi North 6.9 mph - 0.00 in Rain Light Rain
9:53 AM 48.0 °F - 42.1 °F 80% 30.28 in 10.0 mi North 5.8 mph - 0.00 in   Overcast
10:53 AM 48.0 °F - 42.1 °F 80% 30.27 in 10.0 mi North 6.9 mph - N/A   Overcast
11:02 AM 48.2 °F - 41.0 °F 76% 30.27 in 10.0 mi NNW 6.9 mph - N/A   Overcast
11:53 AM 46.0 °F 40.6 °F 39.0 °F 76% 30.28 in 10.0 mi NNW 11.5 mph 18.4 mph 0.00 in   Overcast
12:11 PM 44.6 °F 38.4 °F 37.4 °F 76% 30.28 in 10.0 mi North 12.7 mph 17.3 mph 0.00 in Rain Light Rain
12:53 PM 44.1 °F 39.5 °F 37.9 °F 79% 30.29 in 10.0 mi NNW 8.1 mph - 0.00 in Rain Light Rain
1:12 PM 44.6 °F 39.7 °F 37.4 °F 76% 30.29 in 10.0 mi North 9.2 mph - 0.00 in   Overcast
1:24 PM 44.6 °F 39.7 °F 37.4 °F 76% 30.31 in 10.0 mi NNW 9.2 mph - 0.00 in Rain Light Rain
1:53 PM 43.0 °F 38.2 °F 36.0 °F 76% 30.30 in 10.0 mi NNW 8.1 mph - 0.01 in Rain Light Rain
2:53 PM 44.1 °F 40.1 °F 37.0 °F 76% 30.30 in 10.0 mi NNW 6.9 mph - 0.01 in Rain Light Rain
3:53 PM 45.0 °F 41.2 °F 35.1 °F 68% 30.32 in 10.0 mi NNW 6.9 mph - 0.00 in   Clear
4:53 PM 45.0 °F 42.6 °F 34.0 °F 65% 30.32 in 10.0 mi North 4.6 mph - N/A   Clear
5:53 PM 42.1 °F 39.2 °F 30.9 °F 65% 30.35 in 10.0 mi NW 4.6 mph - N/A   Clear
6:53 PM 41.0 °F 36.4 °F 28.9 °F 62% 30.37 in 10.0 mi NW 6.9 mph - N/A   Clear
7:53 PM 42.1 °F 38.4 °F 28.9 °F 60% 30.40 in 10.0 mi NNW 5.8 mph - N/A   Clear
8:53 PM 39.9 °F 35.1 °F 30.0 °F 68% 30.42 in 10.0 mi NW 6.9 mph - N/A   Mostly Cloudy
9:53 PM 41.0 °F 34.3 °F 28.0 °F 60% 30.43 in 10.0 mi North 11.5 mph - N/A   Clear
10:53 PM 39.9 °F 34.5 °F 28.0 °F 63% 30.43 in 10.0 mi NNW 8.1 mph - N/A   Clear
11:53 PM 37.9 °F 32.7 °F 27.0 °F 65% 30.44 in 10.0 mi NW 6.9 mph - N/A   Clear